Weather History for Rome, NY

Change the Weather History Date:

Sunday, May 4, 2014

  Actual Average Record
Temperature  
Mean Temperature 45 °F -  
Max Temperature 48 °F 63 °F 77 °F (1981)
Min Temperature 42 °F 35 °F 29 °F (1985)
Degree Days  
Heating Degree Days 20    
Moisture  
Dew Point 39 °F    
Average Humidity 81    
Maximum Humidity 92    
Minimum Humidity 66    
Precipitation  
Precipitation 0.32 in - - ()
Sea Level Pressure  
Sea Level Pressure 29.73 in    
Wind  
Wind Speed 12 mph (WNW)    
Max Wind Speed 20 mph    
Max Gust Speed 30 mph    
Visibility 9 miles    
Events Rain    
Averages and records for this station are not official NWS values.
T = Trace of Precipitation, MM = Missing Value Source: NWS Daily Summary

Daily Weather History Graph

Daily Weather History Graph

Search for Another Location

Airport:

Trip Planner

Search our weather history database for the weather conditions in past years. The results will help you decide how hot, cold, wet, or windy it might be!

Date:

Astronomy

May. 04, 2014 Rise Set
Actual Time 5:50 AM EDT 8:06 PM EDT
Civil Twilight 5:19 AM EDT 8:38 PM EDT
Nautical Twilight 4:40 AM EDT 9:17 PM EDT
Astronomical Twilight 3:57 AM EDT 10:00 PM EDT
Moon 10:12 AM EDT (5/4) 12:10 AM EDT (5/4)
Length of Visible Light 15h 18m
Length of Day
14h 15m
Waxing Crescent, 27% of the Moon is Illuminated
May 4
Waxing Crescent
May 6
First Quarter
May 14
Full
May 21
Last Quarter
May 28
New

Hourly Weather History & Observations

Time (EDT) Temp. Windchill Dew Point Humidity Pressure Visibility Wind Dir Wind Speed Gust Speed Precip Events Conditions
12:53 AM 48.9 °F - 43.0 °F 80% 29.68 in 10.0 mi SW 5.8 mph - 0.00 in   Mostly Cloudy
1:53 AM 48.0 °F - 39.9 °F 74% 29.68 in 10.0 mi WSW 10.4 mph - N/A   Mostly Cloudy
2:53 AM 48.9 °F - 39.0 °F 69% 29.67 in 10.0 mi West 9.2 mph - N/A   Overcast
3:53 AM 48.0 °F - 37.9 °F 68% 29.66 in 10.0 mi West 13.8 mph 21.9 mph N/A   Overcast
4:53 AM 46.9 °F - 37.0 °F 68% 29.66 in 10.0 mi WSW 12.7 mph - N/A   Overcast
5:53 AM 46.9 °F - 36.0 °F 66% 29.65 in 10.0 mi WSW 12.7 mph 19.6 mph N/A   Overcast
6:46 AM 44.1 °F 36.5 °F 37.9 °F 79% 29.67 in 7.0 mi WNW 17.3 mph 29.9 mph 0.00 in Rain Light Rain
6:53 AM 43.0 °F 36.0 °F 39.0 °F 86% 29.68 in 10.0 mi WNW 13.8 mph - 0.00 in Rain Light Rain
7:22 AM 43.0 °F 35.7 °F 39.0 °F 86% 29.68 in 5.0 mi West 15.0 mph - 0.01 in Rain Light Rain
7:53 AM 42.1 °F 34.5 °F 37.9 °F 85% 29.69 in 7.0 mi West 15.0 mph - 0.04 in Rain Light Rain
8:07 AM 42.1 °F 36.6 °F 37.9 °F 85% 29.68 in 6.0 mi West 9.2 mph - 0.00 in Rain Light Rain
8:15 AM 42.1 °F 36.6 °F 39.0 °F 89% 29.68 in 4.0 mi West 9.2 mph - 0.01 in Rain Light Rain
8:53 AM 42.1 °F 35.7 °F 39.9 °F 92% 29.68 in 4.0 mi West 11.5 mph - 0.03 in Rain Light Rain
9:01 AM 43.0 °F 37.2 °F 39.0 °F 86% 29.68 in 4.0 mi West 10.4 mph 21.9 mph 0.01 in Rain Light Rain
9:08 AM 43.0 °F 37.7 °F 39.9 °F 89% 29.68 in 3.0 mi West 9.2 mph 21.9 mph 0.02 in Rain Rain
9:53 AM 43.0 °F 36.0 °F 39.0 °F 86% 29.68 in 6.0 mi West 13.8 mph 27.6 mph 0.08 in Rain Light Rain
10:00 AM 43.0 °F 35.7 °F 39.0 °F 86% 29.68 in 5.0 mi West 15.0 mph - 0.01 in Rain Rain
10:53 AM 43.0 °F 34.5 °F 39.0 °F 86% 29.69 in 10.0 mi West 19.6 mph 29.9 mph 0.06 in   Overcast
11:08 AM 43.0 °F 34.5 °F 37.9 °F 82% 29.69 in 10.0 mi WNW 19.6 mph 28.8 mph N/A   Overcast
11:53 AM 43.0 °F 34.8 °F 37.9 °F 82% 29.70 in 10.0 mi WNW 18.4 mph 26.5 mph 0.00 in Rain Light Rain
12:53 PM 43.0 °F 36.4 °F 39.0 °F 86% 29.71 in 10.0 mi WNW 12.7 mph 21.9 mph 0.03 in Rain Light Rain
1:53 PM 43.0 °F 36.0 °F 39.0 °F 86% 29.72 in 5.0 mi WNW 13.8 mph - 0.04 in Rain Rain
2:53 PM 44.1 °F 37.4 °F 39.0 °F 82% 29.71 in 10.0 mi WNW 13.8 mph - 0.03 in Rain Light Rain
3:08 PM 45.0 °F 38.5 °F 39.9 °F 82% 29.72 in 10.0 mi WNW 13.8 mph - 0.00 in   Overcast
3:25 PM 44.1 °F 37.1 °F 39.9 °F 85% 29.72 in 10.0 mi NW 15.0 mph - 0.00 in Rain Light Rain
3:32 PM 44.1 °F 37.7 °F 39.9 °F 85% 29.72 in 10.0 mi NW 12.7 mph - 0.00 in Rain Light Rain
3:53 PM 45.0 °F 38.5 °F 39.9 °F 82% 29.72 in 9.0 mi WNW 13.8 mph 21.9 mph 0.01 in Rain Light Rain
4:53 PM 48.0 °F - 39.9 °F 74% 29.73 in 10.0 mi West 17.3 mph 26.5 mph 0.00 in   Scattered Clouds
5:32 PM 48.0 °F - 39.0 °F 71% 29.73 in 10.0 mi WNW 17.3 mph - 0.00 in Rain Light Rain
5:50 PM 48.2 °F - 39.2 °F 71% 29.73 in 10.0 mi WNW 13.8 mph 23.0 mph 0.00 in Rain Light Rain
5:53 PM 48.9 °F - 39.9 °F 71% 29.74 in 10.0 mi WNW 16.1 mph - 0.00 in Rain Light Rain
6:53 PM 46.9 °F - 37.9 °F 71% 29.76 in 10.0 mi WNW 18.4 mph 25.3 mph 0.00 in   Overcast
7:53 PM 46.0 °F 39.3 °F 37.9 °F 73% 29.78 in 10.0 mi WNW 16.1 mph - N/A   Overcast
8:53 PM 45.0 °F 38.2 °F 39.0 °F 80% 29.81 in 10.0 mi WNW 15.0 mph - 0.00 in Rain Light Rain
9:53 PM 43.0 °F 36.8 °F 39.9 °F 89% 29.85 in 10.0 mi WNW 11.5 mph - 0.00 in Rain Light Rain
10:53 PM 43.0 °F 37.2 °F 39.9 °F 89% 29.87 in 10.0 mi WNW 10.4 mph - 0.00 in   Overcast
11:01 PM 43.0 °F 37.2 °F 39.9 °F 89% 29.86 in 10.0 mi West 10.4 mph - N/A   Overcast
11:11 PM 43.0 °F 37.2 °F 39.9 °F 89% 29.86 in 10.0 mi West 10.4 mph - N/A   Overcast
11:37 PM 43.0 °F 36.4 °F 39.0 °F 86% 29.87 in 10.0 mi WNW 12.7 mph - N/A   Overcast
11:48 PM 42.8 °F 38.0 °F 39.2 °F 87% 29.87 in 10.0 mi WNW 8.1 mph - N/A   Overcast
11:53 PM 42.1 °F 36.1 °F 39.0 °F 89% 29.88 in 10.0 mi WNW 10.4 mph - N/A   Overcast